Regional Weather Roundup
Issued by NWS

Home | Current Version | Previous Version | Graphics & Text | Print | Product List | Glossary On
Versions: 1 2 3 4 5 6 7 8 9 10 11 12 13 14 15 16 17 18 19 20 21 22 23 24 25 26 27 28 29 30 31 32 33 34 35 36 37 38 39 40 41 42 43 44 45 46 47 48
000
ASUS45 KBOU 260710
RWRCO

WEATHER ROUNDUP FOR COLORADO
NATIONAL WEATHER SERVICE DENVER/BOULDER CO
100 AM MDT THU APR 26 2018

NOTE: "FAIR" INDICATES FEW OR NO CLOUDS BELOW 12000 FEET WITH NO
SIGNIFICANT WEATHER AND/OR OBSTRUCTIONS TO VISIBILITY.

COZ001>005-013-030-031-260800-
...NORTHWEST COLORADO...

CITY           SKY/WX    TMP DP  RH WIND       PRES   REMARKS
CRAIG          FAIR      44  24  45 SW13      30.14S
HAYDEN         FAIR      42  22  44 W6        30.16S
MEEKER         FAIR      39  27  62 CALM      30.17R
RANGELY        FAIR      46  23  39 E7        30.13R
RABBIT EARS PA FAIR      32  18  55 W14G25    30.23S WCI  22
STEAMBOAT SPGS FAIR      36  22  57 E3        30.15S
WALDEN         FAIR      43   9  24 W15       30.17R
$$

COZ006>008-011-260800-
...WEST CENTRAL VALLEYS...

CITY           SKY/WX    TMP DP  RH WIND       PRES   REMARKS
GRAND JUNCTION FAIR      51  12  21 E5        30.08R
MONTROSE       FAIR      47  16  29 SE12      30.14S
EAGLE          FAIR      42  15  33 E6        30.16R
RIFLE          FAIR      45  22  40 CALM      30.12R
DELTA          FAIR      49  19  30 E3        30.12R
NUCLA          FAIR      48   1  14 E10       30.17F
$$

COZ017>023-064>068-260800-
...SOUTHWEST COLORADO...

CITY           SKY/WX    TMP DP  RH WIND       PRES   REMARKS
DURANGO        FAIR      45   4  18 W9        30.13S
CORTEZ         FAIR      37   4  25 E8        30.15S
PAGOSA SPRINGS FAIR      35   4  27 NE3       30.17F
TELLURIDE      FAIR      38  10  31 SE7       30.30F
WOLF CREEK PAS FAIR      32   0  25 SW9       30.37F WCI  24
$$

COZ009-010-012-014-032>034-037-058>063-260800-
...CENTRAL COLORADO...

CITY           SKY/WX    TMP DP  RH WIND       PRES   REMARKS
ASPEN          FAIR      35  17  47 S9        30.18S WCI  28
BUENA VISTA    FAIR      37  15  40 CALM      30.16S
COPPER MTN     NOT AVBL
BERTHOUD PASS  FAIR      27  18  69 NW45G54   30.22F WCI   7
COTTONWOOD PAS FAIR      46   0  14 NW9       30.21F
GUNNISON       FAIR      36  12  37 N5        30.19F
GRANBY         FAIR      35  21  57 SE7       30.17S WCI  29
KREMMLING      FAIR      41  27  56 CALM      30.17R
LEADVILLE      FAIR      30   7  37 NE6       30.22F WCI  24
MONARCH PASS   FAIR      30   3  31 W25       30.40F WCI  16
SALIDA         FAIR      39  18  43 CALM      30.21F
SUNLIGHT       FAIR      32   7  34 SW9       30.33S WCI  24
WILKERSON PASS FAIR      34   5  29 W6        30.28F WCI  29
$$

COZ069>075-260800-
...SAN LUIS VALLEY/SANGRE DE CRISTO MOUNTAINS...

CITY           SKY/WX    TMP DP  RH WIND       PRES   REMARKS
ALAMOSA        FAIR      41  12  30 E6        30.13S
DEL NORTE      FAIR      39   8  27 W5        30.15S
LA VETA PASS   FAIR      36  12  38 SW13G20   30.33S
SAGUACHE       NOT AVBL
$$

COZ035-036-038>040-260800-
...NORTHERN COLORADO FRONT RANGE...

CITY           SKY/WX    TMP DP  RH WIND       PRES   REMARKS
DENVER INTL AP MOCLDY    50  27  40 W12       29.99S
AURORA         PTCLDY    49  26  41 SW15      30.00S
FRONT RANGE AP FAIR      51  27  38 S15G22    29.99S
ERIE MUNI ARPT FAIR      39  35  85 SE3       30.05R
BOULDER MUN AP FAIR      48  28  46 SE3       30.00R
CENTENNIAL     FAIR      46  28  49 S5        30.01S
BROOMFIELD     FAIR      52  23  32 W3        30.01S
FORT COLLINS   FAIR      45  28  51 CALM      29.99F
LONGMONT       FAIR      48  32  53 W6        30.00F
$$

COZ041-046-047-076>085-087-088-260800-
...PIKES PEAK/PALMER DIVIDE AND SOUTHERN FOOTHILLS...

CITY           SKY/WX    TMP DP  RH WIND       PRES   REMARKS
COLO. SPRINGS  FAIR      37  28  70 N9        30.07F
A. F. ACADEMY  FAIR      32  24  72 N9        30.07F WCI  24
SCHRIEVER AFB  NOT AVBL
CHEYENNE MTN   FAIR      44  21  39 CALM      30.03F
ELLICOTT         N/A    N/A N/A N/A CALM      30.06F
FALCON         FAIR      36  24  62 W8        30.09F
FORT CARSON    FAIR      40  27  60 N8        30.04F
LIMON          FAIR      40  28  62 S3        30.01F
MONUMENT HILL  FAIR      41  23  48 S10       30.09S
CANON CITY     FAIR      43  32  65 NW9       30.04F
WALSENBURG     NOT AVBL
TRINIDAD       FAIR      46  28  49 W12       30.02F
$$

COZ042>045-048>051-090-091-260800-
...NORTHEAST COLORADO...

CITY           SKY/WX    TMP DP  RH WIND       PRES   REMARKS
GREELEY ARPT   FAIR      37  26  64 N20G26    30.01R
AKRON          FAIR      48  32  53 SW17      29.95F
BURLINGTON     FAIR      38  32  79 SW9       29.99F
WRAY           FAIR      43  32  65 SW9       29.96F
YUMA           FAIR      41  28  60 SW9       29.95F
STERLING       NOT AVBL
HOLYOKE        FAIR      41  34  75 SW6       29.94F
FORT MORGAN    FAIR      41  26  53 W6        29.96F
$$

COZ086-089-092>099-260800-
...SOUTHEAST COLORADO...

CITY           SKY/WX    TMP DP  RH WIND       PRES   REMARKS
PUEBLO         FAIR      41  31  67 N10       30.01F
LA JUNTA       FAIR      42  32  67 N3        29.99F
LAMAR          FAIR      37  31  78 MISG      29.99F
SPRINGFIELD      N/A     33  29  85 SW9       30.03F WCI  25
$$




USA.gov is the U.S. government's official web portal to all federal, state and local government web resources and services.